Wind_Speed
8 10 8 9 9 7 4 5 7 4 3 6 4 1 1 2 4 4 5 4 3 1 8 9 7 8 10 9 8 11 12 11 12 12 14 16 16 17 17 17 17 17 18 21 23 23 24 25 26 27 28 31 35 35 34 37 37 36 37 38 38 37 34
8 7 8 11 10 6 5 7 8 4 2 2 2 3 3 4 8 4 4 7 5 3 4 3 2 7 11 11 9 9 9 12 14 14 14 16 17 18 18 18 17 16 17 21 24 26 26 28 29 30 35 39 40 37 34 33 33 34 37 37 37 38 37
9 5 6 10 10 6 1 4 9 6 4 5 2 4 5 6 8 4 4 7 6 6 5 3 4 7 9 10 7 8 10 13 14 15 15 16 16 16 16 16 15 15 17 20 24 26 28 29 29 31 36 37 34 33 33 32 32 36 36 32 33 36 34
7 7 8 10 10 6 1 3 8 4 4 5 4 3 4 6 7 4 5 6 4 6 6 6 10 10 9 10 6 8 12 14 14 14 14 14 14 14 14 15 16 17 19 22 26 28 28 29 29 30 31 31 30 31 31 31 30 32 32 32 36 37 33
5 7 8 12 13 9 5 7 8 5 2 2 3 3 2 4 6 5 6 7 4 4 5 8 12 11 10 11 9 8 10 13 14 13 12 13 13 14 15 16 17 18 18 22 27 28 28 28 28 29 28 28 30 29 29 32 31 29 31 33 36 37 36
7 9 8 11 15 12 10 9 8 9 7 4 6 7 3 3 5 4 5 8 5 6 6 8 10 11 12 12 9 8 9 10 11 10 12 13 13 14 16 16 17 17 17 20 25 26 25 25 24 26 27 26 28 28 28 30 30 30 30 29 32 37 37
10 10 7 5 9 11 12 11 10 11 10 9 10 9 4 4 3 1 2 6 5 5 6 8 9 10 10 8 6 8 9 7 8 9 12 13 13 14 15 15 15 15 15 18 22 23 24 24 24 26 26 26 28 28 28 28 28 30 29 27 31 37 37
7 7 5 2 2 7 11 12 12 12 12 13 12 6 4 5 6 4 3 6 5 3 2 4 6 7 7 6 6 9 9 5 6 10 11 12 12 12 12 13 12 12 13 16 16 18 20 21 22 24 25 26 26 27 27 27 27 27 27 25 27 33 37
6 7 8 6 4 6 8 8 11 13 15 15 8 2 3 6 9 11 8 7 5 3 1 2 4 6 9 10 9 8 8 6 5 8 9 10 10 10 11 12 12 13 14 14 13 14 17 19 20 22 24 25 25 25 25 25 24 24 26 25 24 29 33
9 9 10 8 5 5 5 6 9 13 17 18 9 3 4 7 8 11 10 7 4 3 1 2 4 5 10 13 10 7 7 8 6 6 8 9 9 10 12 13 12 13 13 12 12 13 16 20 22 22 24 25 24 24 24 24 24 23 25 25 24 26 28
11 10 9 6 5 6 8 9 12 12 15 17 11 5 7 5 4 6 9 7 6 7 6 5 6 8 10 11 9 7 8 9 8 7 7 8 8 9 11 11 11 11 11 13 14 14 17 21 22 22 24 25 24 23 23 24 23 22 24 25 24 24 25
14 15 14 10 10 12 13 13 15 15 15 17 15 13 10 7 5 9 9 7 9 11 9 9 10 9 8 9 9 8 8 7 6 6 6 8 9 9 10 11 12 13 13 13 14 14 17 20 21 22 23 23 22 22 22 23 23 23 23 23 22 22 21
18 21 19 13 12 13 14 15 17 17 17 18 18 17 12 9 8 12 7 8 10 11 10 11 12 11 11 11 9 6 4 5 6 7 9 11 12 12 13 14 14 14 13 13 14 14 16 19 20 20 20 20 20 20 21 22 23 23 21 20 20 19 17
18 21 20 14 13 13 13 15 17 17 18 20 20 19 17 14 15 15 9 10 12 12 12 13 11 10 10 6 3 4 5 8 9 10 11 12 13 14 15 15 14 13 13 13 13 13 14 17 20 20 20 20 20 21 21 21 21 21 18 17 19 18 17
13 17 17 14 15 16 16 17 16 16 16 17 18 17 14 13 15 13 10 10 10 10 11 10 5 3 3 3 4 8 9 9 10 11 12 13 14 14 15 14 13 12 11 12 13 13 15 18 20 20 20 19 20 20 20 19 19 19 18 18 20 20 19
8 10 14 15 15 15 17 19 17 15 14 13 13 11 9 10 12 9 6 7 8 7 8 7 4 2 5 9 10 9 8 9 11 13 13 13 14 15 14 13 12 13 13 14 14 15 16 19 20 19 17 16 16 16 17 18 19 20 20 20 21 21 19
7 7 10 12 11 10 12 14 15 15 13 11 11 10 10 13 13 9 7 8 8 5 4 6 8 8 9 10 9 7 7 8 11 12 13 13 14 14 13 13 14 15 15 14 14 15 16 18 18 17 16 15 17 19 20 21 20 19 19 20 20 20 19
7 5 4 6 7 8 8 7 11 16 16 16 15 12 11 13 11 6 4 6 6 5 6 8 9 8 5 4 4 3 4 6 9 11 11 9 7 7 9 12 14 13 11 11 12 14 15 15 16 16 18 20 21 21 21 19 19 18 18 18 18 19 20
4 1 3 6 8 8 4 1 4 10 15 18 15 6 4 7 7 4 5 7 6 5 5 6 5 4 3 1 2 2 3 6 8 10 10 7 4 4 7 10 11 10 10 10 11 13 15 16 17 18 21 21 19 18 18 18 19 18 17 17 18 19 21
2 1 4 6 5 1 1 1 2 3 6 9 9 4 2 4 5 6 8 9 5 3 4 4 3 3 5 4 2 1 3 5 6 8 9 8 7 7 7 8 7 8 10 12 13 15 16 18 19 19 19 18 16 16 16 17 17 17 17 17 18 19 19
2 3 4 3 3 3 3 2 3 3 2 5 7 7 6 4 3 5 7 7 5 4 5 5 5 5 5 4 2 3 5 5 5 6 7 8 9 9 10 10 10 10 12 14 16 17 17 16 16 15 15 15 15 14 14 15 16 16 16 16 18 20 19
1 3 4 3 5 6 4 3 2 1 2 3 4 5 6 4 2 5 7 7 7 7 6 7 8 7 5 4 1 5 8 6 3 2 1 3 5 6 7 9 11 11 10 11 12 12 11 10 9 10 12 14 14 14 14 14 14 15 15 16 17 20 19
1 2 5 5 6 4 1 2 2 3 3 3 3 6 6 3 1 3 6 7 7 6 7 9 9 7 6 4 1 6 8 5 0 3 5 6 7 7 7 7 10 10 9 10 11 10 10 8 7 9 12 13 13 12 11 12 13 13 13 13 15 17 17
1 1 4 5 4 1 3 6 7 7 4 2 6 8 5 2 2 2 4 5 6 6 9 9 6 3 3 3 2 4 5 5 5 7 9 10 10 10 11 12 13 13 13 14 13 12 11 9 9 11 12 12 11 10 9 10 10 10 10 12 14 16 16
0 1 3 5 3 1 4 9 11 7 2 5 8 7 2 3 3 1 2 6 7 7 7 7 5 4 5 6 5 6 8 10 10 10 13 15 15 14 14 14 16 16 16 16 15 13 11 12 12 12 13 12 10 9 9 8 7 8 11 14 15 16 15
1 1 3 5 2 3 9 16 12 5 3 4 4 2 2 4 6 7 8 9 10 10 10 10 9 9 10 10 9 10 11 12 11 11 14 16 16 16 15 14 14 15 15 15 16 14 12 13 13 13 14 13 11 9 9 8 9 10 12 13 13 14 15
1 1 2 4 3 3 15 18 9 2 1 1 4 6 4 6 10 11 10 10 9 11 13 13 12 13 13 12 11 12 12 12 12 12 12 14 14 14 15 15 16 17 16 15 15 14 12 13 13 12 14 14 11 10 10 10 12 13 13 13 14 15 15
1 1 1 3 3 8 15 12 3 3 4 4 5 6 6 7 9 9 9 9 8 8 11 12 12 13 12 11 11 11 11 12 12 12 11 11 11 12 14 16 20 22 19 15 15 14 13 14 13 10 12 13 11 9 10 13 15 15 15 16 15 15 14
1 2 1 4 6 9 11 8 5 7 8 7 5 6 7 7 6 6 7 8 7 7 9 10 10 11 11 11 11 11 10 11 11 11 11 11 11 12 13 14 17 20 19 17 16 13 12 14 13 11 11 13 12 11 12 15 16 16 17 17 15 14 13
2 4 1 4 6 8 10 10 8 7 8 6 6 7 7 6 6 6 6 7 7 7 7 9 10 9 10 11 11 10 10 10 10 10 10 10 11 12 11 10 12 16 18 17 15 14 13 13 12 11 11 11 13 14 16 17 17 18 18 17 14 12 13
5 4 3 2 4 7 9 8 6 7 9 8 7 7 7 6 7 8 8 9 9 8 8 9 10 9 10 11 10 9 9 9 9 10 10 10 10 11 10 8 7 10 13 12 11 11 12 12 12 12 12 12 13 16 18 19 19 19 19 17 14 14 16
4 4 6 5 3 4 7 6 4 5 8 10 10 8 7 8 9 10 10 10 9 9 8 8 9 10 10 9 9 9 8 8 8 8 8 8 9 10 10 9 7 7 8 8 8 8 9 12 13 12 12 14 16 17 18 18 19 20 19 15 14 16 17
5 5 6 7 5 2 5 5 2 2 5 8 10 9 10 11 11 12 12 12 10 9 8 7 8 10 9 8 9 10 8 7 7 8 7 8 8 8 8 7 6 5 4 4 4 4 5 9 12 10 9 12 15 17 18 18 20 20 18 15 14 16 16
5 7 10 9 7 4 1 3 1 2 4 8 10 10 10 11 11 11 13 13 12 11 9 8 8 10 8 8 9 9 8 7 7 7 7 7 6 6 5 3 3 4 3 3 4 3 3 6 8 7 7 10 14 15 16 19 20 19 17 15 13 13 14
2 9 12 8 5 6 6 3 0 2 3 7 10 9 9 9 9 9 11 12 11 10 10 8 8 9 8 7 8 9 8 7 7 7 7 6 5 5 3 2 2 2 3 3 2 2 4 5 5 4 6 10 12 14 16 19 19 18 18 15 12 11 12
3 7 7 5 6 9 8 6 4 3 4 7 9 9 8 8 8 8 10 10 9 7 5 5 5 5 6 6 8 9 8 7 8 9 8 8 6 6 4 3 2 1 0 2 3 5 6 7 7 7 8 11 13 14 17 19 18 18 20 18 13 11 11
7 9 8 8 9 10 9 7 6 6 7 8 9 8 9 9 8 8 9 8 6 5 5 4 4 5 6 7 8 8 8 8 9 8 7 6 6 5 3 2 1 2 3 4 5 6 7 8 9 9 10 12 15 16 18 20 19 19 21 18 14 12 12
Wind_Direction
185 189 176 171 189 188 163 181 205 206 158 171 178 175 88 135 222 199 171 229 248 249 284 275 250 260 260 250 234 219 212 192 184 195 199 201 202 200 201 201 199 197 195 197 198 197 196 195 196 198 199 203 207 209 210 214 216 218 220 221 221 220 217
202 192 180 193 207 179 156 199 182 107 52 195 180 202 169 190 230 214 167 219 227 201 247 272 251 249 251 248 229 212 201 186 194 204 199 197 198 196 198 197 194 195 196 198 197 197 197 197 196 197 202 208 210 210 209 210 212 214 218 219 220 220 219
187 159 190 208 209 193 226 199 161 144 201 190 169 214 192 198 229 222 180 214 228 214 213 245 256 252 257 255 223 187 195 198 203 210 203 197 194 194 197 197 196 198 200 197 196 198 199 198 197 199 204 207 207 208 210 209 211 215 217 216 217 220 217
173 160 197 215 206 192 313 172 168 186 219 184 182 197 182 204 225 224 205 210 213 211 202 213 239 250 256 256 234 195 203 205 206 209 202 191 190 194 196 198 200 200 200 197 196 198 200 198 199 202 203 203 204 207 208 208 211 213 213 214 218 219 216
181 188 199 215 210 193 186 194 187 183 168 160 200 195 164 210 219 213 225 230 204 186 194 206 224 238 240 243 244 223 213 211 210 206 195 186 188 194 195 197 201 199 198 197 197 199 200 200 201 202 202 202 205 207 206 207 208 207 209 213 217 219 219
204 211 199 211 221 210 195 200 193 186 180 165 199 213 183 191 221 202 223 246 221 169 186 204 216 231 236 237 241 240 234 221 209 203 196 191 188 193 198 198 198 197 194 195 196 196 197 199 201 201 201 203 206 207 207 208 207 207 209 209 214 219 219
216 214 188 198 234 221 204 204 200 197 196 190 206 220 179 167 218 144 200 258 237 169 185 204 213 229 240 245 244 251 254 231 204 202 200 196 193 197 200 198 196 195 190 189 191 190 192 195 197 197 200 203 206 208 208 208 207 209 208 206 213 219 218
230 221 192 144 240 217 211 212 203 200 206 208 214 213 166 185 198 163 200 245 217 169 179 212 233 249 258 260 241 242 254 243 204 203 198 194 195 196 196 194 191 188 183 183 186 188 190 192 194 196 200 205 207 209 210 210 210 210 207 206 210 216 217
226 221 212 205 198 202 215 217 206 205 209 210 209 144 158 213 195 183 215 235 197 174 133 195 245 260 260 257 243 237 252 253 219 206 197 191 188 187 189 188 183 181 182 183 186 189 189 191 195 198 202 206 208 210 211 212 212 211 210 208 207 211 213
217 215 216 213 197 192 214 218 208 209 212 209 198 135 197 217 185 186 218 227 183 176 222 217 233 248 253 253 246 240 250 249 231 209 197 189 183 186 188 187 183 182 184 185 186 188 190 193 197 200 204 208 210 212 212 212 213 212 211 211 208 207 206
219 220 218 199 176 191 206 209 206 207 213 211 200 193 213 195 147 197 217 213 202 201 202 217 228 230 241 249 243 235 242 242 229 212 201 189 184 187 187 184 182 182 184 186 187 189 191 195 199 201 204 208 209 211 211 211 212 213 212 211 208 205 204
217 223 219 194 189 208 209 207 207 200 201 205 204 214 210 150 156 221 206 187 216 214 198 209 221 220 232 245 236 227 233 233 217 204 197 188 187 187 185 186 186 185 186 187 187 189 192 196 199 201 205 207 208 209 210 211 212 214 213 209 206 205 201
215 223 223 200 192 212 211 210 212 200 195 200 206 219 211 166 201 232 197 168 212 217 207 213 217 213 217 225 222 215 216 209 195 194 193 193 192 188 189 194 193 188 186 184 185 189 192 195 197 200 204 205 207 209 210 212 213 216 215 208 206 205 192
218 223 225 205 196 212 212 211 210 202 200 200 202 215 211 197 219 232 203 188 209 215 215 217 218 217 217 216 202 194 205 201 194 194 196 196 194 192 196 199 193 188 184 181 183 185 189 194 196 199 202 202 206 209 212 213 214 215 215 207 205 203 191
229 229 227 214 207 216 220 216 208 201 204 205 205 211 204 198 218 223 203 202 214 216 220 223 224 217 205 206 208 211 213 201 189 192 197 197 196 199 203 199 187 182 180 178 181 187 192 195 195 197 199 200 204 208 212 214 213 213 213 209 208 205 198
242 228 224 220 213 218 229 229 216 199 197 205 210 208 191 189 206 208 194 210 225 221 221 229 233 196 201 215 217 214 210 196 192 197 197 194 197 203 203 191 180 181 182 181 185 190 194 195 195 196 194 192 196 202 207 212 213 213 212 212 211 206 201
262 240 219 214 208 214 231 233 224 208 195 197 206 204 196 197 200 199 203 219 225 208 188 216 227 217 217 224 224 216 206 197 201 206 201 197 201 204 196 182 180 185 187 186 187 188 190 191 192 190 184 185 194 202 207 210 210 209 209 209 209 205 202
278 268 187 179 198 217 224 223 220 213 202 199 205 205 204 205 202 201 217 227 224 193 180 206 220 216 223 254 266 244 210 197 208 219 222 218 213 203 188 183 186 187 182 178 178 179 179 180 180 182 187 196 202 204 204 204 202 203 204 205 206 204 204
289 336 143 194 224 223 210 176 214 216 213 208 204 190 181 206 215 227 237 231 219 196 198 217 225 199 168 128 322 288 240 214 207 214 225 232 229 203 187 188 192 183 168 163 164 168 172 176 180 187 195 200 200 198 198 198 199 200 199 201 205 205 203
269 273 201 227 258 265 131 89 117 167 203 193 184 174 168 201 218 225 233 236 227 201 212 226 228 184 150 130 105 342 296 258 225 215 214 206 200 195 186 188 190 174 166 166 165 167 173 178 184 191 193 194 193 193 194 195 195 195 198 201 206 206 200
235 266 251 254 296 276 218 176 135 136 169 168 183 201 189 173 196 216 234 254 249 220 207 197 190 179 161 151 121 26 344 297 255 240 225 202 192 188 180 176 173 173 177 174 169 170 175 179 184 186 184 183 183 184 187 188 187 189 195 200 205 207 203
208 270 275 261 253 236 191 144 112 32 317 281 249 221 181 159 202 217 227 243 234 211 184 163 168 177 180 183 145 10 349 319 270 242 226 185 170 162 160 160 157 163 170 164 157 158 159 162 167 169 170 173 174 176 179 179 179 185 193 199 206 209 206
141 263 272 253 244 243 99 43 3 350 323 292 241 211 194 175 202 227 227 230 222 199 165 150 158 174 180 173 55 359 348 339 13 116 103 96 99 101 104 116 128 134 130 123 122 118 113 119 138 155 163 167 168 169 167 167 174 184 191 197 204 207 207
89 255 272 258 245 278 7 345 330 325 314 226 196 201 193 112 23 285 229 199 178 163 152 144 141 157 155 134 65 16 26 45 63 81 88 87 85 87 90 101 113 115 109 105 103 98 98 112 134 147 152 152 148 146 147 157 170 178 187 197 204 207 208
74 171 262 271 258 91 8 337 324 315 272 190 194 201 172 61 34 354 134 136 128 122 125 122 103 77 90 101 97 88 88 84 77 78 83 84 83 85 91 99 104 103 99 98 97 96 103 118 130 138 139 130 122 125 134 144 154 171 191 201 204 206 207
262 141 268 275 237 80 5 340 322 293 217 196 177 142 88 81 80 77 85 98 100 96 93 96 102 101 97 101 104 99 93 90 85 86 89 90 90 92 91 89 92 95 93 91 90 90 97 109 119 126 123 114 111 120 131 140 157 176 191 195 196 198 198
175 99 281 270 229 1 348 335 314 261 220 176 120 102 96 90 85 83 80 77 83 94 99 100 106 108 104 103 101 94 89 87 84 82 84 87 91 93 90 84 83 84 79 71 70 73 80 92 101 112 115 116 121 130 140 155 168 175 180 182 184 186 184
260 121 285 306 320 330 333 332 330 88 79 102 116 105 99 92 88 89 87 76 68 84 100 105 105 102 98 92 87 81 76 77 78 76 74 78 83 86 86 87 87 86 84 79 73 71 80 92 100 110 118 122 126 134 149 162 167 169 173 176 175 171 168
286 118 208 307 327 329 335 353 37 73 86 94 91 92 96 91 85 87 89 87 75 70 84 92 89 87 86 80 75 72 66 63 67 70 70 71 76 81 85 91 94 97 101 103 100 97 100 108 115 123 128 132 139 149 160 166 166 167 170 169 164 158 159
132 96 127 290 322 340 348 3 24 53 71 69 62 76 79 68 65 66 67 71 62 49 63 75 69 68 77 77 72 70 67 61 56 58 60 60 66 75 78 81 93 103 108 109 112 115 116 119 125 131 138 146 154 161 166 168 170 170 168 162 156 155 162
157 127 162 253 339 345 343 353 17 43 56 54 46 54 63 63 66 64 61 66 61 46 54 71 70 63 65 71 69 62 61 60 53 51 53 50 51 58 59 53 67 95 103 107 114 120 126 136 143 148 156 165 169 169 168 169 173 173 167 159 156 163 166
147 137 155 147 78 1 335 341 9 41 62 67 59 53 57 62 65 62 59 62 65 58 51 60 74 71 61 62 68 63 53 51 47 45 48 47 45 51 53 47 47 63 83 105 122 125 133 149 159 165 171 175 174 170 169 172 175 173 165 159 163 169 167
97 94 132 143 124 54 335 328 6 51 75 85 79 71 66 61 61 62 58 53 55 60 54 49 65 72 61 57 68 69 58 47 38 31 31 34 38 46 49 48 54 59 65 88 100 91 114 153 171 178 177 173 170 168 171 177 178 172 165 165 169 168 164
145 158 168 167 147 135 242 266 289 24 84 96 91 83 76 70 66 66 66 59 48 43 40 44 63 70 57 50 64 70 61 49 39 31 27 27 33 45 55 74 101 108 100 85 76 82 125 162 174 174 170 173 173 173 178 181 179 173 168 168 168 163 162
162 162 165 161 133 131 145 155 333 358 61 91 94 89 85 84 81 81 84 79 64 42 23 21 51 73 67 52 60 66 59 47 40 34 27 21 21 25 33 66 87 89 98 103 111 161 187 195 191 185 188 188 183 181 183 182 179 176 171 164 158 161 171
43 105 119 104 99 114 120 123 129 117 91 92 97 92 85 80 73 70 76 81 83 84 58 18 25 65 77 68 65 67 62 49 39 33 24 16 11 5 10 29 43 21 239 214 218 216 216 216 208 198 196 192 187 185 185 183 182 181 176 169 163 168 177
81 88 81 79 93 103 106 108 107 98 94 100 102 95 89 87 76 66 65 64 66 89 98 75 38 35 52 62 61 59 60 52 40 34 26 17 10 2 359 357 264 233 222 221 221 213 206 201 194 189 188 186 185 187 188 187 186 184 181 176 170 170 172
Height
712 714 713 712 721 734 738 739 742 738 726 733 759 775 772 771 778 779 776 768 753 744 735 719 717 720 715 712 712 712 714 716 719 721 719 719 721 722 724 725 727 730 732 735 738 742 746 749 753 756 758 760 762 764 766 769 772 775 776 778 780 783 786
713 706 709 711 708 715 732 740 732 728 731 734 747 769 779 780 781 774 770 765 755 756 747 724 719 724 716 711 710 711 713 715 716 715 712 713 713 714 717 718 721 724 726 729 732 736 740 743 746 749 751 753 756 759 762 765 768 770 772 774 777 779 781
711 705 713 719 710 706 718 722 713 723 744 750 752 764 774 781 782 774 771 766 755 753 745 727 722 722 714 708 707 711 713 712 711 709 707 708 709 711 714 715 718 719 720 724 727 731 735 738 741 743 745 749 752 756 758 761 764 766 769 771 773 775 777
708 709 716 723 719 713 714 715 713 718 730 738 745 748 752 764 776 773 773 772 757 741 731 725 721 715 709 706 704 707 708 705 704 703 702 705 707 708 710 711 713 713 715 719 722 727 730 733 736 738 742 746 749 752 754 757 760 762 765 767 768 770 773
714 715 713 712 713 716 720 723 725 725 724 726 733 737 738 746 761 769 771 769 749 726 717 717 713 707 703 701 699 700 699 697 697 696 697 700 702 704 705 705 706 708 711 714 718 723 726 729 732 735 739 742 744 747 749 751 755 757 760 762 764 766 769
718 711 701 698 699 703 711 718 720 721 722 728 740 748 742 737 745 753 758 759 738 711 705 706 703 700 696 693 693 694 692 691 692 693 693 695 697 698 699 699 701 704 706 710 715 719 723 726 729 732 736 738 740 743 745 747 750 752 755 758 760 762 765
708 700 693 695 696 693 698 705 707 709 711 719 734 746 743 739 742 741 745 753 731 699 695 699 696 694 691 689 692 693 689 687 689 690 690 691 693 693 694 695 698 700 703 707 712 715 718 721 724 728 732 734 736 738 740 743 745 747 751 754 756 758 761
699 694 693 696 696 696 701 701 698 701 704 704 710 721 728 733 739 740 747 755 730 698 694 698 694 694 693 691 692 692 688 685 686 688 688 689 691 691 692 694 696 698 701 705 709 711 714 718 721 725 728 730 732 734 737 739 741 744 748 751 753 754 757
722 714 710 708 704 703 704 701 697 697 698 699 703 713 723 729 727 728 741 748 724 699 697 699 697 698 697 693 690 690 689 687 686 687 686 687 689 691 693 694 695 697 699 702 705 707 711 715 719 722 724 727 729 731 734 736 739 742 745 747 749 750 753
736 731 722 712 706 704 702 700 699 697 697 700 705 716 729 732 725 720 727 731 715 698 696 696 696 699 697 692 688 688 688 687 685 685 685 686 688 690 692 693 694 695 697 699 701 704 708 712 715 718 721 723 726 728 731 734 737 739 741 743 745 746 750
711 711 704 695 695 701 703 701 699 699 698 697 702 714 722 724 726 724 717 715 712 703 697 695 693 695 694 688 686 687 686 684 684 684 684 685 686 688 690 692 693 694 695 698 699 702 706 709 712 715 717 720 723 725 728 731 734 736 738 739 741 743 747
689 687 687 686 688 692 695 696 695 696 696 696 700 707 706 708 723 725 711 708 713 705 695 692 690 690 690 686 683 682 681 680 682 683 684 685 686 688 690 691 691 692 694 696 698 700 703 706 709 712 714 717 720 722 725 728 731 733 734 736 738 741 745
682 678 678 681 685 686 684 687 688 689 692 695 699 699 695 699 711 711 703 707 710 699 689 686 683 681 682 678 674 675 676 677 680 682 684 684 685 687 688 688 688 688 690 692 695 698 701 704 707 709 712 715 717 720 722 725 727 730 732 734 736 740 744
679 676 675 677 682 685 683 681 681 682 684 687 689 690 689 692 696 693 694 702 701 690 681 676 671 670 671 670 671 673 674 675 678 681 682 682 683 684 684 684 683 684 687 689 692 696 698 701 704 706 709 712 714 717 719 722 725 727 730 732 734 738 741
683 676 674 677 681 683 683 680 677 677 680 683 684 683 684 690 693 688 689 698 696 682 672 669 668 669 672 673 674 674 672 673 676 678 679 679 680 680 679 679 680 682 685 688 690 693 695 697 700 703 705 708 711 714 717 720 722 725 728 729 731 735 737
688 675 676 679 677 681 684 680 676 676 680 682 682 680 682 687 692 692 695 700 694 677 669 671 672 673 675 675 672 670 670 671 673 675 675 675 675 675 675 676 678 680 682 684 687 688 691 694 697 700 703 706 709 713 715 717 720 722 725 726 728 731 733
689 676 675 676 679 694 697 681 671 672 675 677 678 677 678 677 680 689 694 688 677 669 670 674 674 674 674 671 667 666 667 668 670 670 669 668 668 668 669 671 674 676 677 678 681 684 687 691 695 698 701 705 707 710 712 714 717 719 721 723 725 728 730
691 679 674 679 694 706 692 666 657 662 665 670 674 674 673 670 669 673 675 669 664 666 670 671 670 670 670 669 665 663 663 666 668 667 665 665 665 665 666 669 670 672 673 675 678 682 686 690 693 697 700 702 704 706 709 711 714 716 719 721 723 725 727
690 683 684 699 706 691 667 655 655 656 655 657 663 669 671 670 669 669 668 665 663 665 667 666 665 665 666 667 666 664 663 662 662 664 664 664 665 666 667 668 669 670 671 673 677 681 685 688 692 695 696 698 701 704 706 708 711 714 716 718 720 722 724
690 689 693 703 695 671 659 661 660 658 658 659 665 675 676 673 672 673 670 665 662 665 668 667 666 666 664 665 665 664 663 661 659 659 660 660 663 665 666 667 669 670 670 672 675 679 683 686 689 691 693 696 699 702 704 706 709 712 714 716 717 720 722
689 691 690 688 683 674 669 665 660 659 661 660 662 670 673 671 671 672 670 667 665 666 666 665 666 666 665 666 666 662 661 661 658 656 654 655 657 658 659 662 666 669 672 672 674 678 681 684 687 689 692 695 697 700 703 705 707 710 712 714 715 718 720
687 692 692 690 690 684 671 662 660 658 658 656 655 661 668 669 668 668 669 668 665 663 662 664 665 666 668 671 668 663 661 660 657 656 654 653 654 656 658 660 663 668 672 673 675 678 681 684 687 690 692 694 696 699 701 703 706 708 710 712 714 716 718
688 694 698 695 690 680 667 662 661 658 657 656 657 664 670 667 663 664 665 664 662 660 660 661 662 665 671 674 670 665 663 660 657 656 656 654 655 657 659 661 664 669 673 674 677 679 682 685 689 690 692 694 696 698 700 702 705 707 708 711 713 715 717
691 697 698 689 677 671 667 665 662 658 657 657 666 676 673 663 660 661 660 658 658 656 655 657 661 665 669 672 670 666 663 661 659 657 656 656 657 659 661 664 667 670 673 674 677 680 683 686 689 691 692 693 695 697 700 702 705 706 709 711 713 715 716
690 698 698 686 673 668 669 667 662 659 658 662 671 675 667 659 660 658 654 654 654 653 653 656 662 667 666 666 667 664 661 662 661 658 656 657 660 663 665 667 669 670 672 675 678 681 684 686 688 690 691 692 694 697 700 703 705 707 709 711 713 714 716
690 696 696 688 677 670 669 668 662 658 663 667 666 664 661 660 659 656 654 655 654 655 657 659 663 666 665 664 665 664 663 663 663 662 660 659 663 666 669 670 671 671 674 677 680 682 684 686 687 688 690 692 695 699 701 703 705 708 710 712 713 714 715
694 699 697 694 687 675 670 671 666 660 664 666 662 660 661 659 657 657 659 659 658 658 660 661 662 663 664 665 666 665 664 663 663 664 663 662 664 666 667 669 670 671 675 679 681 683 685 686 688 689 690 693 696 698 701 702 704 707 710 711 712 713 714
698 704 701 696 691 680 673 674 670 663 661 661 659 660 662 660 659 660 661 663 663 661 661 663 663 664 665 666 665 665 666 665 664 665 666 666 667 666 667 668 669 671 675 680 684 686 687 687 689 692 693 696 698 700 702 703 704 707 709 710 711 712 713
696 696 694 690 686 681 675 672 670 665 661 660 659 660 661 662 661 660 662 665 665 663 663 664 664 664 666 666 665 667 668 668 667 668 668 670 670 670 670 671 671 672 675 679 683 687 689 689 690 692 694 697 699 701 703 704 706 707 709 709 710 712 715
692 689 690 689 685 682 678 673 671 669 665 663 663 663 664 665 664 663 664 667 667 666 666 666 667 668 668 667 668 669 670 671 671 671 671 672 673 674 674 675 674 674 676 679 681 684 687 689 690 692 695 696 698 700 702 705 707 708 708 709 710 713 716
691 691 691 689 688 687 684 679 676 672 670 669 668 668 669 668 667 667 667 668 670 670 670 670 672 672 670 670 672 672 673 675 675 674 675 675 676 676 677 678 678 677 677 680 682 683 685 688 689 691 694 696 697 699 701 704 706 706 707 708 710 713 716
685 686 685 687 690 690 686 683 681 677 674 674 673 673 674 672 670 670 670 670 671 673 674 674 675 674 674 674 674 674 676 677 677 677 678 678 678 679 680 680 680 680 680 681 683 683 684 686 688 691 693 694 695 696 699 703 705 705 706 708 711 713 715
685 685 687 690 691 691 689 686 684 680 677 676 677 678 678 676 675 674 674 674 675 677 678 679 677 677 678 676 674 676 678 678 679 679 679 679 680 681 682 682 683 683 684 685 685 685 686 688 690 693 694 695 695 697 700 703 705 706 707 709 712 714 714
684 682 684 684 683 688 693 690 686 684 680 678 680 682 682 681 681 680 679 680 681 682 683 682 681 681 682 680 678 678 680 681 682 682 682 683 684 684 685 685 685 685 686 686 686 687 689 691 693 694 695 695 697 699 701 703 705 706 707 709 711 713 714
675 671 674 675 676 684 691 691 690 689 684 682 685 685 684 684 684 683 683 683 685 688 690 689 686 685 685 684 682 682 683 684 684 684 685 686 686 686 686 685 684 684 684 685 687 688 690 691 693 694 695 697 699 700 701 703 705 706 707 708 710 711 713
674 671 674 676 677 684 689 692 693 691 688 688 690 688 685 685 684 684 684 685 688 693 695 695 693 690 687 686 685 686 686 686 686 687 688 688 688 688 686 685 685 685 685 686 688 689 690 692 693 694 696 698 699 701 702 703 705 705 705 706 708 711 713
677 677 678 679 681 685 689 691 691 689 687 689 690 689 687 686 687 687 688 690 693 695 697 697 696 692 687 686 686 687 688 688 689 690 690 690 691 690 689 688 687 686 686 687 688 689 691 692 693 695 696 697 699 700 701 702 703 704 704 705 708 710 712